Home > Weather > Windsor > Past weeks

Flag for Canada Past Weather in Windsor, Ontario, Canada — Yesterday and Last 2 Weeks

Now
75 °F

Passing clouds.


Feels Like: 77 °F
Forecast: 55 / 78 °F
Wind: 12 mph from North

Location: Windsor Weather Station

Current Time: Jun 29, 2016 at 2:16:22 PM

Latest Report: Jun 29, 2016 at 1:00 PM


Visibility: 15 mi

Pressure: 30.07 "Hg

Humidity: 29%

Dew Point: 41 °F

Location of WindsorLocation

Past Weather in Windsor — Graph

°F

Windsor Temperature Yesterday

Maximum temperature yesterday: 73 °F (at 4:00 PM)
Minimum temperature yesterday: 61 °F (at 11:00 PM)
Average temperature yesterday: 67 °F

High & Low Weather Summary for the Past Weeks

 TemperatureHumidityPressure
High91 °F (Jun 20, 4:00 PM)100% (Jun 27, 4:00 AM)30.28 "Hg (Jun 27, 4:00 AM)
Low52 °F (Jun 29, 6:00 AM)24% (Jun 18, 4:00 PM)29.63 "Hg (Jun 16, 1:00 PM)
Average73 °F60%29.98 "Hg
* Reported Jun 14 1:00 PM — Jun 29 1:00 PM, Windsor, Weather by CustomWeather, © 2016

Note: Actual official high and low records may vary slightly from our data, if they occured in-between our weather recording intervals... More about our weather records

Advertising

Windsor Weather History for the Previous 24 Hours

Scroll right to see more
 ConditionsComfort  
Time TempWeatherWind HumidityBarometerVisibility
1:00 PM
Wed, Jun 29
75 °FPassing clouds.12 mph29%30.07 "Hg15 mi
12:00 PM73 °FPassing clouds.3 mph29%30.09 "Hg15 mi
11:00 AM72 °FPassing clouds.10 mph31%30.09 "Hg15 mi
10:00 AM70 °FSunny.9 mph38%30.09 "Hg15 mi
9:00 AM66 °FSunny.12 mph40%30.08 "Hg15 mi
8:00 AM63 °FSunny.8 mph49%30.08 "Hg15 mi
7:00 AM57 °FPassing clouds.5 mph63%30.09 "Hg15 mi
6:00 AM52 °FPassing clouds.6 mph77%30.08 "Hg15 mi
5:00 AM54 °FPassing clouds.5 mph72%30.06 "Hg15 mi
4:00 AM55 °FPassing clouds.6 mph67%30.06 "Hg15 mi
3:00 AM55 °FPassing clouds.6 mph77%30.05 "Hg15 mi
2:00 AM57 °FPassing clouds.6 mph72%30.05 "Hg15 mi
1:00 AM59 °FPassing clouds.5 mph72%30.06 "Hg15 mi
12:00 AM61 °FPassing clouds.5 mph68%30.06 "Hg15 mi
11:00 PM
Tue, Jun 28
61 °FPassing clouds.7 mph68%30.06 "Hg15 mi
10:00 PM64 °FPartly sunny.10 mph60%30.06 "Hg15 mi
9:00 PM64 °FPartly sunny.7 mph64%30.05 "Hg15 mi
8:00 PM66 °FBroken clouds.12 mph64%30.06 "Hg15 mi
7:00 PM66 °FBroken clouds.10 mph64%30.04 "Hg15 mi
6:00 PM68 °FOvercast.13 mph56%30.05 "Hg15 mi
5:00 PM66 °FBroken clouds.15 mph64%30.05 "Hg15 mi
4:00 PM73 °FPartly sunny.18 mph53%30.03 "Hg15 mi
3:00 PM68 °FPartly sunny.16 mph56%30.05 "Hg15 mi
2:00 PM68 °FPartly sunny.12 mph60%30.04 "Hg15 mi
Weather by CustomWeather, © 2016

See weather overviewHow to use our weather pages